This is the latest recevied weather packets stored in our database for station/object WY7EM. If no packets are shown the sender has not sent any weather packets the latest 10 day(s).
| Time | Temp. | Humidity | Pressure | Rain* | Wind** | Luminosity | Snow |
|---|---|---|---|---|---|---|---|
| 1777756700 | 23.89° C | 21% | 1018.1 hPa | 0 mm | - | 787 W/m² | - |
| 1777756395 | 23.89° C | 20% | 1018 hPa | 0 mm | - | 809 W/m² | - |
| 1777756093 | 25° C | 19% | 1018 hPa | 0 mm | - | 792 W/m² | - |
| 1777755791 | 24.44° C | 19% | 1018.1 hPa | 0 mm | - | 729 W/m² | - |
| 1777755488 | 24.44° C | 18% | 1018 hPa | 0 mm | - | 788 W/m² | - |
| 1777755183 | 23.33° C | 19% | 1018.3 hPa | 0 mm | - | 811 W/m² | - |
| 1777754881 | 23.89° C | 20% | 1018.2 hPa | 0 mm | - | 779 W/m² | - |
| 1777754578 | 23.89° C | 20% | 1018.2 hPa | 0 mm | - | 830 W/m² | - |
| 1777754275 | 23.89° C | 20% | 1018.2 hPa | 0 mm | - | 807 W/m² | - |
| 1777753973 | 24.44° C | 19% | 1018.1 hPa | 0 mm | - | 842 W/m² | - |
| 1777753673 | 23.89° C | 20% | 1018.5 hPa | 0 mm | - | 859 W/m² | - |
| 1777753371 | 23.89° C | 20% | 1018.5 hPa | 0 mm | - | 837 W/m² | - |
| 1777753069 | 22.78° C | 20% | 1018.7 hPa | 0 mm | - | 865 W/m² | - |
| 1777752764 | 22.78° C | 20% | 1018.7 hPa | 0 mm | - | 878 W/m² | - |
| 1777752461 | 23.33° C | 20% | 1018.8 hPa | 0 mm | - | 887 W/m² | - |
| 1777752157 | 23.33° C | 20% | 1018.7 hPa | 0 mm | - | 874 W/m² | - |
| 1777751855 | 23.89° C | 19% | 1018.9 hPa | 0 mm | - | 847 W/m² | - |
| 1777751552 | 23.89° C | 20% | 1018.7 hPa | 0 mm | - | 867 W/m² | - |
| 1777751248 | 23.89° C | 19% | 1018.9 hPa | 0 mm | - | 784 W/m² | - |
| 1777750946 | 23.33° C | 18% | 1019 hPa | 0 mm | - | 887 W/m² | - |
| 1777750641 | 22.78° C | 19% | 1019.1 hPa | 0 mm | - | 864 W/m² | - |
| 1777750339 | 22.78° C | 18% | 1019 hPa | 0 mm | - | 886 W/m² | - |
| 1777750038 | 22.78° C | 18% | 1019 hPa | 0 mm | - | 867 W/m² | - |
| 1777749736 | 22.22° C | 19% | 1019.3 hPa | 0 mm | - | 869 W/m² | - |
| 1777749433 | 22.78° C | 20% | 1019.6 hPa | 0 mm | - | 878 W/m² | - |
* Rain latest hour (hover to see other rain measurements)
** Current wind speed in m/s (hover to see current wind gust speed)